Location: Andershausen
(51.8462°N, 9.8595°E)
Time: 23:31:52
(UTC+00:00)

Cosmos 1464 Rocket - Pass Details

Date: 18 November 2025
Orbit: 950 x 1001 km, 82.9° (Epoch: 04 December)

Event Time Altitude Azimuth Distance (km) Brightness Sun altitude
Rises 17:42:02 0° 189° (S) 3,688 7.2 -20.7°
Reaches altitude 10° 17:44:33 10° 189° (S) 2,737 6.5 -21.1°
Maximum altitude 17:50:51 87° 280° (W) 985 4.0 -22.0°
Drops below altitude 10° 17:57:06 10° 10° (N) 2,719 6.2 -23.0°
Sets 17:59:36 0° 11° (N) 3,663 6.9 -23.4°
